Weather History for Rantoul, IL

Change the Weather History Date:

Friday, October 11, 2013

  Actual Average (KCMI) Record (KCMI)
Temperature  
Mean Temperature 68 °F 55 °F  
Max Temperature 79 °F 67 °F 85 °F (2008)
Min Temperature 56 °F 43 °F 30 °F (2000)
Degree Days  
Heating Degree Days 0 10  
Month to date heating degree days 98  
Since 1 July heating degree days 190  
Cooling Degree Days 2 1  
Month to date cooling degree days 12  
Year to date cooling degree days 937  
Growing Degree Days 18 (Base 50)    
Moisture  
Dew Point 52 °F    
Average Humidity 65    
Maximum Humidity 87    
Minimum Humidity 34    
Precipitation  
Precipitation 0.00 in 0.09 in 1.46 in (1949)
Month to date precipitation 1.09  
Year to date precipitation 31.65  
Sea Level Pressure  
Sea Level Pressure 30.04 in    
Wind  
Wind Speed 4 mph (SSE)    
Max Wind Speed 12 mph    
Max Gust Speed 21 mph    
Visibility 10 miles    
Events      
T = Trace of Precipitation, MM = Missing Value Source: NWS Daily Summary

Daily Weather History Graph

Daily Weather History Graph

Search for Another Location

Airport:

Trip Planner

Search our weather history database for the weather conditions in past years. The results will help you decide how hot, cold, wet, or windy it might be!

Date:

Astronomy

Oct. 11, 2013 Rise Set
Actual Time 6:59 AM CDT 6:18 PM CDT
Civil Twilight 6:32 AM CDT 6:45 PM CDT
Nautical Twilight 6:00 AM CDT 7:17 PM CDT
Astronomical Twilight 5:29 AM CDT 7:48 PM CDT
Moon 1:41 PM CDT (10/11) No Moon Set
Length of Visible Light 12h 13m
Length of Day
11h 19m
Waxing Crescent, 47% of the Moon is Illuminated
Oct 11
Waxing Crescent
Oct 11
First Quarter
Oct 18
Full
Oct 26
Last Quarter
Nov 3
New

Hourly Weather History & Observations

Time (CDT) Temp. Dew Point Humidity Pressure Visibility Wind Dir Wind Speed Gust Speed Precip Events Conditions
12:15 AM 58.3 °F 52.9 °F 82% 30.06 in 10.0 mi Calm Calm - N/A   Clear
12:35 AM 58.1 °F 52.7 °F 82% 30.07 in 10.0 mi Calm Calm - N/A   Clear
12:55 AM 57.4 °F 52.7 °F 84% 30.07 in 10.0 mi ESE 3.5 mph - N/A   Clear
1:15 AM 56.8 °F 52.2 °F 84% 30.07 in 10.0 mi ESE 3.5 mph - N/A   Clear
1:55 AM 57.2 °F 52.2 °F 83% 30.07 in 10.0 mi ESE 3.5 mph - N/A   Clear
2:15 AM 56.8 °F 52.2 °F 84% 30.06 in 10.0 mi ESE 4.6 mph - N/A   Clear
2:35 AM 56.1 °F 51.8 °F 85% 30.06 in 10.0 mi Calm Calm - N/A   Clear
2:55 AM 56.3 °F 51.8 °F 85% 30.06 in 10.0 mi Calm Calm - N/A   Clear
3:15 AM 56.3 °F 52.0 °F 85% 30.06 in 10.0 mi Calm Calm - N/A   Clear
3:35 AM 56.3 °F 52.0 °F 85% 30.06 in 7.0 mi Calm Calm - N/A   Clear
3:55 AM 56.5 °F 52.2 °F 85% 30.07 in 7.0 mi ESE 3.5 mph - N/A   Mostly Cloudy
4:15 AM 56.8 °F 52.7 °F 86% 30.08 in 7.0 mi Calm Calm - N/A   Mostly Cloudy
4:35 AM 56.5 °F 52.5 °F 87% 30.08 in 7.0 mi Calm Calm - N/A   Mostly Cloudy
4:55 AM 57.4 °F 52.7 °F 84% 30.08 in 10.0 mi Calm Calm - N/A   Mostly Cloudy
5:15 AM 58.1 °F 52.7 °F 82% 30.09 in 10.0 mi Calm Calm - N/A   Overcast
5:35 AM 58.1 °F 53.2 °F 84% 30.10 in 10.0 mi Calm Calm - N/A   Overcast
5:55 AM 58.1 °F 53.1 °F 83% 30.10 in 10.0 mi Calm Calm - N/A   Mostly Cloudy
6:15 AM 58.1 °F 53.6 °F 85% 30.10 in 10.0 mi ESE 3.5 mph - N/A   Mostly Cloudy
6:35 AM 58.3 °F 53.2 °F 83% 30.10 in 10.0 mi ESE 3.5 mph - N/A   Overcast
6:55 AM 58.5 °F 53.2 °F 83% 30.09 in 10.0 mi ESE 4.6 mph - N/A   Mostly Cloudy
7:15 AM 58.1 °F 53.2 °F 84% 30.09 in 10.0 mi ESE 5.8 mph - N/A   Scattered Clouds
7:35 AM 57.7 °F 53.2 °F 85% 30.09 in 7.0 mi ESE 4.6 mph - N/A   Scattered Clouds
7:55 AM 58.5 °F 53.4 °F 83% 30.09 in 7.0 mi SE 4.6 mph - N/A   Clear
8:15 AM 59.5 °F 54.0 °F 82% 30.09 in 10.0 mi SE 4.6 mph - N/A   Clear
8:35 AM 61.0 °F 54.5 °F 79% 30.09 in 10.0 mi SE 4.6 mph - N/A   Clear
8:55 AM 62.8 °F 54.7 °F 75% 30.09 in 10.0 mi SSE 4.6 mph - N/A   Clear
9:15 AM 64.9 °F 54.9 °F 70% 30.09 in 10.0 mi South 5.8 mph - N/A   Clear
9:35 AM 67.6 °F 55.0 °F 64% 30.09 in 10.0 mi South 6.9 mph - N/A   Scattered Clouds
9:55 AM 68.0 °F 54.5 °F 62% 30.09 in 10.0 mi South 5.8 mph - N/A   Clear
10:15 AM 69.8 °F 54.7 °F 59% 30.09 in 10.0 mi South 6.9 mph - N/A   Clear
10:35 AM 71.2 °F 54.3 °F 55% 30.08 in 10.0 mi SSE 5.8 mph - N/A   Clear
10:55 AM 75.0 °F 54.3 °F 48% 30.08 in 10.0 mi South 10.4 mph - N/A   Clear
11:15 AM 75.6 °F 54.5 °F 48% 30.08 in 10.0 mi SSW 9.2 mph - N/A   Clear
11:35 AM 75.6 °F 54.0 °F 47% 30.08 in 10.0 mi South 9.2 mph - N/A   Scattered Clouds
11:55 AM 76.8 °F 54.0 °F 45% 30.07 in 10.0 mi SSE 8.1 mph - N/A   Mostly Cloudy
12:15 PM 76.8 °F 52.9 °F 43% 30.07 in 10.0 mi South 10.4 mph 16.1 mph N/A   Scattered Clouds
12:35 PM 76.3 °F 53.4 °F 45% 30.06 in 10.0 mi SSE 11.5 mph - N/A   Scattered Clouds
12:55 PM 77.5 °F 52.3 °F 41% 30.05 in 10.0 mi SSE 10.4 mph - N/A   Scattered Clouds
1:15 PM 77.7 °F 51.3 °F 40% 30.03 in 10.0 mi South 6.9 mph - N/A   Scattered Clouds
1:35 PM 78.4 °F 51.4 °F 39% 30.03 in 10.0 mi SSE 9.2 mph - N/A   Scattered Clouds
1:55 PM 78.1 °F 51.4 °F 39% 30.02 in 10.0 mi SSE 9.2 mph - N/A   Scattered Clouds
2:15 PM 78.1 °F 51.1 °F 39% 30.01 in 10.0 mi SSE 9.2 mph 17.3 mph N/A   Scattered Clouds
2:35 PM 78.8 °F 50.4 °F 37% 30.01 in 10.0 mi SSE 11.5 mph 18.4 mph N/A   Scattered Clouds
2:55 PM 78.3 °F 50.7 °F 38% 30.01 in 10.0 mi South 8.1 mph - N/A   Scattered Clouds
3:15 PM 78.3 °F 49.8 °F 37% 30.00 in 10.0 mi SE 10.4 mph 16.1 mph N/A   Scattered Clouds
3:35 PM 79.5 °F 49.3 °F 35% 30.00 in 10.0 mi South 11.5 mph 20.7 mph N/A   Scattered Clouds
3:55 PM 79.5 °F 49.6 °F 35% 30.00 in 10.0 mi SSE 11.5 mph 19.6 mph N/A   Clear
4:15 PM 78.8 °F 49.5 °F 36% 29.99 in 10.0 mi SSE 11.5 mph 18.4 mph N/A   Clear
4:35 PM 78.8 °F 48.4 °F 34% 29.99 in 10.0 mi South 11.5 mph - N/A   Clear
4:55 PM 78.1 °F 49.1 °F 36% 29.98 in 10.0 mi SSE 10.4 mph 17.3 mph N/A   Clear
5:15 PM 77.9 °F 49.8 °F 37% 29.99 in 10.0 mi SSE 11.5 mph - N/A   Clear
5:35 PM 77.0 °F 50.2 °F 39% 29.99 in 10.0 mi SSE 10.4 mph - N/A   Clear
5:55 PM 75.6 °F 51.1 °F 42% 29.99 in 10.0 mi SSE 8.1 mph - N/A   Clear
6:15 PM 73.6 °F 51.8 °F 46% 29.99 in 10.0 mi SE 6.9 mph - N/A   Clear
6:35 PM 71.6 °F 51.8 °F 50% 29.99 in 10.0 mi SSE 8.1 mph - N/A   Clear
6:55 PM 69.4 °F 52.3 °F 54% 29.99 in 10.0 mi SE 6.9 mph - N/A   Clear
7:15 PM 66.9 °F 52.7 °F 60% 29.99 in 10.0 mi SE 6.9 mph - N/A   Clear
7:35 PM 65.5 °F 52.7 °F 63% 29.99 in 10.0 mi SE 6.9 mph - N/A   Clear
7:55 PM 64.8 °F 52.7 °F 65% 30.00 in 10.0 mi SE 5.8 mph - N/A   Clear
8:15 PM 64.0 °F 52.7 °F 67% 30.00 in 10.0 mi SE 5.8 mph - N/A   Clear
8:35 PM 62.1 °F 52.7 °F 71% 30.00 in 10.0 mi SE 3.5 mph - N/A   Clear
8:55 PM 62.1 °F 52.7 °F 71% 30.01 in 10.0 mi SE 4.6 mph - N/A   Clear
9:15 PM 60.8 °F 52.7 °F 75% 30.01 in 10.0 mi SE 5.8 mph - N/A   Clear
9:35 PM 60.3 °F 52.7 °F 76% 30.01 in 10.0 mi SE 4.6 mph - N/A   Clear
9:55 PM 61.3 °F 53.1 °F 74% 30.01 in 10.0 mi SE 5.8 mph - N/A   Clear
10:15 PM 60.8 °F 52.7 °F 75% 30.02 in 10.0 mi SSE 5.8 mph - N/A   Clear
10:35 PM 60.3 °F 52.7 °F 76% 30.02 in 10.0 mi SSE 5.8 mph - N/A   Clear
10:55 PM 60.3 °F 52.7 °F 76% 30.02 in 10.0 mi SSE 6.9 mph - N/A   Clear
11:15 PM 59.9 °F 52.9 °F 78% 30.02 in 10.0 mi SSE 3.5 mph - N/A   Clear
11:35 PM 58.5 °F 52.2 °F 80% 30.02 in 10.0 mi Calm Calm - N/A   Clear
11:55 PM 58.1 °F 52.2 °F 81% 30.02 in 10.0 mi Calm Calm - N/A   Clear